Regional Weather Roundup
Issued by NWS

Home | Current Version | Previous Version | Text Only | Print | Product List | Glossary On
Versions: 1 2 3 4 5 6 7 8 9 10 11 12 13 14 15 16 17 18 19 20 21 22 23 24 25 26 27 28 29 30 31 32 33 34 35 36 37 38 39 40 41 42 43 44 45 46 47 48 49 50
073
ASUS43 KOAX 230410
RWRNE

WEATHER ROUNDUP FOR NEBRASKA
NATIONAL WEATHER SERVICE OMAHA NE
1100 PM CDT TUE AUG 22 2017

NOTES: SATELLITE DATA IS BEING USED TO AUGMENT CLOUD COVER ABOVE
       12000 FEET.
       "FAIR" INDICATES FEW OR NO CLOUDS BELOW 12,000 FEET WITH NO
       SIGNIFICANT WEATHER AND/OR OBSTRUCTIONS TO VISIBILITY.


NEZ001>004-019>022-054>056-230500-
NEBRASKA PANHANDLE

CITY           SKY/WX    TMP DP  RH WIND       PRES   REMARKS
SCOTTSBLUFF    CLEAR     67  53  61 E12       30.16R
ALLIANCE       CLEAR     62  50  64 SE10      30.18R
CHADRON        CLEAR     74  47  38 S22G31    30.10S
GORDON         FAIR      64  48  56 S5        30.16S
KIMBALL        CLEAR     65  53  64 SE9       30.21S
SIDNEY         CLEAR     66  52  60 S14       30.21R
$$

NEZ057>060-069>072-079>082-230500-
SOUTHWEST NEBRASKA

CITY           SKY/WX    TMP DP  RH WIND       PRES   REMARKS
NORTH PLATTE   CLEAR     59  56  89 E8        30.20R
IMPERIAL       CLOUDY    59  52  77 SE7       30.21R
LEXINGTON      CLEAR     61  55  81 SE5       30.21R
MCCOOK         CLEAR     63  55  75 E7        30.20S
OGALLALA       CLEAR     67  52  59 S8        30.20R
$$

NEZ005>010-023>029-035>040-094-230500-
NORTH CENTRAL NEBRASKA

CITY           SKY/WX    TMP DP  RH WIND       PRES   REMARKS
VALENTINE      CLEAR     67  49  52 S10       30.15S
AINSWORTH      CLEAR     59  53  80 S8        30.17S
BROKEN BOW     CLEAR     60  55  83 W3        30.20R
O`NEILL        CLEAR     62  54  74 S6        30.18R
ORD            CLEAR     61  54  77 CALM      30.18R
THEDFORD       CLEAR     68  52  56 S12       30.20S
$$

NEZ041-046>049-061>064-073>077-083>087-230500-
SOUTH CENTRAL NEBRASKA

CITY           SKY/WX    TMP DP  RH WIND       PRES   REMARKS
GRAND ISLAND   CLEAR     62  56  80 E6        30.19S
AURORA         CLEAR     61  56  84 S3        30.19R
HASTINGS       CLEAR     64  52  64 CALM      30.21R
HEBRON         CLEAR     58  55  89 CALM      30.18S
HOLDREGE       CLEAR     59  55  84 CALM      30.20S
KEARNEY        CLEAR     63  56  78 S6        30.21R
YORK           CLEAR     59  55  88 CALM      30.19S
$$

NEZ011>018-030>034-042>045-230500-
NORTHEAST NEBRASKA

CITY           SKY/WX    TMP DP  RH WIND       PRES   REMARKS
NORFOLK        CLEAR     58  55  90 S3        30.17R
ALBION         CLEAR     59  57  94 CALM      30.19R
BLAIR          CLEAR     62  53  71 CALM      30.16S
COLUMBUS       CLEAR     57  54  89 CALM      30.18R
FREMONT        CLEAR     60  56  85 CALM      30.17R
TEKAMAH        CLEAR     57  55  93 CALM      30.16R
WAYNE          CLEAR     56  54  91 CALM      30.17R
$$

NEZ050>053-065>068-078-088>093-230500-
SOUTHEAST NEBRASKA

CITY           SKY/WX    TMP DP  RH WIND       PRES   REMARKS
LINCOLN        CLEAR     61  55  81 CALM      30.18R
OMAHA EPPLEY   PTCLDY    62  56  80 CALM      30.15S
BEATRICE       CLEAR     63  55  74 NE3       30.17S
FALLS CITY     CLEAR     59  55  87 NW3       30.16R
NEBRASKA CITY  CLEAR     62  53  72 N3        30.17R
PLATTSMOUTH    CLEAR     60  51  71 CALM      30.17R
$$

NEZ044-045-051>053-067-230500-
OMAHA AREA

CITY           SKY/WX    TMP DP  RH WIND       PRES   REMARKS
OMAHA EPPLEY   PTCLDY    62  56  80 CALM      30.15S
BLAIR          CLEAR     62  53  71 CALM      30.16S
FREMONT        CLEAR     60  56  85 CALM      30.17R
MILLARD        CLEAR     62  56  82 CALM      30.16R
OFFUTT AFB     CLEAR     57  53  86 CALM      30.15R
PLATTSMOUTH    CLEAR     60  51  71 CALM      30.17R
WAHOO          FAIR      60  56  85 CALM      30.17R
$$




USA.gov is the U.S. government's official web portal to all federal, state and local government web resources and services.